Погода в Вишневом

Украина / Днепропетровская область     48°26′10″N   33°54′58″E
темп.,
°C
ветер,
м/с
пор.,
м/с
влажн.,
%
обл.,
%
осадки,
мм/ч
давл.,
гПа
погр.,
м
14 августа, вс
вс1400:00+24всв51333100 0.0 1010295
03:00+23всв51243100 0.0 1010364
06:00+24всв81546100 0.0 1009612
09:00+27в81336100 0.0 1009863
12:00+32вюв81121100 0.0 10092024
15:00+35вюв71016100 0.0 10073722
18:00+33в61020100 0.0 1006611
21:00+29всв7142975 0.0 1006582
15 августа, пн
пн1500:00+28всв9173098 0.0 1006725
03:00+27всв8152693 0.0 1006650
06:00+24в8164062 0.1 1006464
09:00+24в5124492 0.6 1007477
12:00+29в7102784 0.0 10061024
15:00+35юв81021100 0.1 10042688
18:00+33ююз4530100 0.1 1003472
21:00+28ююв2336100 0.1 100441
16 августа, вт
вт1600:00+23зюз4869100 0.3 1005232
03:00+21вюв3481100 1.3 100766
06:00+20ю3589100 2.8 1007125
09:00+23юв3473100 2.8 1008381
12:00+28ююв454418 0.0 10091787
15:00+29ююв573899 0.1 10082253
18:00+24сз336371 0.3 1009242
21:00+21св337594 1.1 100944
17 августа, ср
ср1700:00+20с22815 2.3 101025
03:00+20ююв22770 2.3 100911
06:00+20ю22800 0.0 100915
09:00+25ююз346394 0.0 1009413
12:00+29ююз44445 0.0 10091411
15:00+31юз343753 0.0 10082473
18:00+29з2247100 0.1 100819
21:00+20юз91483100 5.4 1010284
18 августа, чт
чт1800:00+20юз228261 1.4 100915
03:00+20з338435 2.9 100949
06:00+19св128319 0.0 100812
09:00+24ююз226498 0.0 1009331
12:00+26зюз2253100 0.0 1008639
15:00+28сз2249100 0.0 1008924
18:00+27ссз22555 0.0 1007129
21:00+21сз357926 0.8 100869